Snowfall_Accumulation
0.0 0.0 0.0 0.0 0.0 0.0 0.0 0.0 0.0 0.0 0.0 0.0 0.0 0.0 0.0 0.0 0.0 0.0 0.0 0.0 0.2 18.5 5.2 0.0 0.0 1.8 4.1 5.4 17.8 8.6 12.4 13.1 20.9 38.6 28.3 20.9 12.7 3.7 4.9 2.5 2.4 3.6 16.2 23.9 24.0 34.2 21.2 0.1 0.0 1.2 0.7 0.1 0.6 3.6
0.0 0.0 0.0 0.0 0.0 0.0 0.0 0.0 0.0 0.0 0.0 0.0 0.0 0.0 0.0 0.0 0.0 0.0 0.5 0.0 0.0 12.7 11.1 0.0 0.0 0.0 0.0 0.0 3.8 8.8 12.5 8.0 8.0 25.1 16.1 13.4 16.9 11.3 2.8 10.5 2.7 10.0 5.9 13.1 11.5 11.5 1.0 0.0 0.3 0.2 0.2 0.4 1.1 3.6
0.0 0.0 0.0 0.0 0.0 0.0 0.0 0.0 0.0 0.0 0.0 0.0 0.0 0.0 0.0 0.0 0.0 0.0 0.0 0.0 0.0 18.3 8.1 2.3 4.2 0.0 0.0 0.0 0.0 13.3 3.3 1.7 6.5 5.2 12.6 9.6 17.2 4.4 10.9 6.9 6.5 2.8 1.2 7.6 3.5 0.6 0.2 0.1 0.0 0.0 0.1 0.1 0.2 1.3
0.0 0.0 0.0 0.0 0.0 0.0 0.0 0.0 0.0 0.0 0.0 0.0 0.0 0.0 0.0 0.0 0.0 0.0 0.0 0.0 1.8 9.7 27.0 7.3 0.0 2.0 0.0 0.0 0.0 0.0 0.0 0.0 0.4 0.9 16.2 15.4 13.7 1.1 2.7 1.5 4.5 5.2 4.5 5.0 2.1 0.3 0.4 0.1 0.2 0.1 0.1 0.1 0.2 0.1
0.0 0.0 0.0 0.0 0.0 0.0 0.0 0.0 0.0 0.0 0.0 0.0 0.0 0.0 0.0 0.0 0.0 0.0 0.0 0.0 0.0 3.7 16.2 7.0 0.0 0.0 0.5 0.0 0.0 0.0 0.0 0.9 2.8 12.3 19.8 13.5 1.3 3.3 2.4 2.7 5.5 1.2 8.2 9.7 8.6 1.5 2.2 0.6 0.3 0.1 0.4 0.6 0.6 0.4
0.0 0.0 0.0 0.0 0.0 0.0 0.0 0.0 0.0 0.0 0.0 0.0 0.0 0.0 0.0 0.0 0.0 0.0 35.4 0.0 0.0 0.0 15.1 16.8 0.9 1.1 2.3 0.8 0.2 0.4 0.5 1.8 2.8 9.0 8.6 2.1 0.0 3.0 11.8 6.1 0.4 0.7 3.5 4.9 8.5 2.1 2.1 1.8 0.9 0.3 1.3 2.3 2.8 1.8
0.0 0.0 0.0 0.0 0.0 0.0 0.0 0.0 0.0 0.0 0.0 0.0 0.0 0.0 0.0 0.0 0.0 13.2 7.7 0.3 0.0 0.0 25.2 17.4 9.8 0.6 1.0 1.0 1.2 3.7 1.5 4.6 3.5 5.8 5.7 1.7 1.5 2.9 6.3 1.2 0.0 0.0 0.8 2.4 3.6 5.3 6.4 6.4 9.9 4.7 1.2 1.5 1.8 0.3
0.0 0.0 0.0 0.0 0.0 0.0 0.0 0.0 0.0 0.0 0.0 0.0 0.0 0.0 0.0 0.0 0.0 2.5 0.0 0.0 0.0 1.2 7.5 21.1 13.3 9.4 0.3 5.2 7.2 1.4 7.3 6.0 7.3 5.5 2.7 1.7 1.7 2.8 10.1 0.0 0.0 0.1 0.2 0.6 0.5 0.8 3.3 4.1 3.9 3.4 1.0 0.2 0.1 0.0
0.0 0.0 0.0 0.0 0.0 0.0 0.0 0.0 0.0 0.0 0.0 0.0 0.0 0.0 0.0 0.0 19.4 0.0 0.0 0.0 0.0 1.4 21.6 10.4 9.0 20.4 0.5 4.1 2.8 4.4 2.9 21.2 4.7 14.0 4.6 2.7 5.3 9.6 0.7 0.0 0.1 0.1 0.2 0.1 0.0 0.0 0.2 0.6 0.2 0.0 0.3 0.1 0.6 0.7
0.0 0.0 0.0 0.0 0.0 0.0 0.0 0.0 0.0 0.0 0.0 0.0 0.0 24.5 50.1 1.8 0.0 0.0 3.1 15.9 21.7 16.1 9.7 10.0 0.7 9.5 1.2 2.2 11.4 10.4 10.7 11.5 18.1 4.5 1.6 8.4 2.8 0.8 0.3 0.3 0.2 0.2 0.1 0.1 0.6 1.4 1.0 0.7 0.2 0.0 0.0 0.5 0.2 0.1
0.0 0.0 0.0 0.0 0.0 0.0 0.0 0.0 0.0 0.0 0.0 0.0 24.2 21.5 0.0 0.0 0.1 5.6 38.4 25.7 15.8 17.2 2.5 1.1 0.0 1.0 0.0 6.0 10.5 3.9 15.6 8.2 19.0 3.3 4.7 7.9 5.7 4.9 2.6 2.4 1.4 0.7 0.2 0.1 0.0 0.1 0.0 0.0 1.1 0.9 0.6 0.2 0.0 0.1
0.0 0.0 0.0 0.0 0.0 0.0 0.0 0.0 0.0 0.0 0.0 0.0 0.1 0.0 0.1 5.0 22.4 32.4 27.2 12.3 3.3 2.5 2.2 1.9 3.2 4.5 1.2 0.4 11.0 12.4 13.6 12.2 10.2 1.6 15.2 9.6 7.6 2.3 1.8 3.2 1.0 0.0 0.0 0.0 0.0 0.0 0.1 0.1 0.1 0.1 0.8 0.8 0.9 3.7
0.0 0.0 0.0 0.0 0.0 0.0 0.0 0.0 0.0 0.0 0.0 0.0 5.1 13.7 15.2 19.7 36.6 24.1 14.3 7.2 4.8 1.0 1.1 0.8 9.2 3.2 4.5 2.6 15.7 16.7 27.7 13.7 1.6 27.7 16.4 9.8 3.4 4.3 3.3 0.8 0.3 0.4 0.5 0.2 0.5 0.0 0.0 0.0 0.7 1.6 2.8 6.2 5.8 6.0
0.0 0.0 0.0 0.0 0.0 0.0 0.0 0.0 0.0 0.0 0.5 7.7 18.9 29.3 19.3 16.0 9.7 6.3 3.5 2.2 0.9 0.7 1.0 2.8 7.2 9.0 3.9 11.5 10.2 22.5 12.1 11.0 22.6 17.3 13.9 12.7 7.1 4.6 3.8 3.4 3.3 2.7 2.5 2.2 1.1 0.8 1.9 1.6 3.0 4.5 4.7 7.0 6.5 7.0
0.0 0.0 0.0 0.0 0.0 0.0 0.0 0.0 0.0 0.0 7.3 17.4 9.0 13.9 9.2 7.5 4.5 3.4 2.2 1.3 1.1 1.8 4.3 9.4 9.5 7.6 13.0 23.0 8.9 9.3 18.3 18.4 13.8 19.5 16.5 12.4 8.0 6.6 6.2 7.0 7.5 9.8 10.5 9.5 11.9 13.1 12.6 10.3 8.4 11.4 11.5 10.3 8.2 9.3
0.0 0.0 0.0 0.0 0.0 0.0 0.0 0.0 1.2 4.0 12.9 9.3 9.3 9.7 6.1 4.5 7.4 5.3 4.5 3.7 1.7 3.1 5.6 9.0 14.5 15.1 16.0 12.7 15.0 16.2 16.5 21.9 23.9 15.2 10.8 5.6 5.4 5.8 6.8 7.8 9.0 10.2 12.1 12.9 13.0 14.9 17.5 19.4 19.8 20.6 19.8 17.6 17.0 14.8
0.0 0.5 0.0 0.0 0.0 0.5 1.6 3.5 3.5 21.0 14.2 8.5 12.3 7.4 8.2 9.2 8.1 7.1 7.1 6.9 4.8 9.4 16.2 12.3 24.0 15.6 6.8 10.4 10.7 10.7 21.1 21.2 12.7 9.1 6.4 5.4 7.6 7.1 7.4 6.8 7.9 8.3 11.4 13.0 13.7 14.8 16.8 18.0 17.0 15.5 17.9 21.3 18.0 17.9
0.5 0.0 0.0 0.0 0.0 3.7 5.7 2.0 11.1 10.1 12.5 8.9 13.1 13.2 7.3 8.7 10.1 9.2 8.0 8.3 8.1 8.0 7.1 17.6 7.0 8.0 10.5 10.1 16.2 17.8 16.7 12.4 7.1 7.3 8.3 8.7 8.1 8.8 7.6 6.8 8.1 8.5 10.1 13.0 12.4 14.1 14.0 12.4 11.2 13.6 13.5 14.4 13.0 14.5
0.4 0.2 0.0 0.0 0.2 6.5 16.6 8.3 3.3 12.1 12.6 8.1 8.5 7.7 6.4 10.1 12.1 10.7 10.7 9.6 6.4 4.1 9.7 9.4 12.3 7.6 10.8 12.7 16.7 14.1 11.1 9.2 11.7 12.5 13.3 13.0 11.9 10.6 10.0 9.4 8.7 11.7 11.9 13.9 12.3 11.2 12.4 11.4 9.7 9.7 10.4 10.3 9.7 11.8
0.0 0.2 0.0 0.3 0.7 20.1 19.2 9.1 0.7 4.5 9.2 7.7 5.4 6.6 6.3 11.3 10.4 8.9 7.1 5.9 5.5 8.8 13.1 14.1 15.1 16.9 18.7 18.4 18.5 16.6 12.8 10.1 8.4 10.5 14.1 16.5 16.9 13.0 13.0 12.8 13.6 12.9 11.2 11.7 12.2 12.4 11.8 12.2 12.1 8.3 7.3 9.0 9.5 10.0
0.4 0.0 0.0 0.7 5.1 11.4 10.2 5.6 8.0 2.6 5.0 6.0 4.8 2.1 7.3 3.2 4.9 5.4 4.7 2.0 5.3 11.4 13.8 16.1 19.2 18.1 18.0 19.9 16.9 12.5 12.0 8.7 10.7 8.8 10.8 13.9 15.6 11.1 12.4 13.2 10.6 9.5 7.5 9.4 10.0 13.9 12.1 10.5 10.5 9.1 6.9 6.1 6.9 7.7
0.4 0.2 2.4 1.8 13.7 13.1 13.2 2.3 2.0 2.9 3.9 4.2 3.1 2.4 5.1 6.3 4.1 4.4 1.2 4.4 12.8 19.2 17.0 17.6 17.4 15.9 14.3 16.1 17.6 14.8 16.3 10.6 9.9 10.0 11.1 9.2 11.7 11.0 12.2 13.3 9.1 9.1 8.1 8.5 7.7 9.5 9.1 6.9 6.0 6.0 6.1 5.8 4.2 4.6
1.3 2.7 9.6 7.8 14.2 11.1 5.2 1.1 4.9 4.9 8.1 7.0 3.8 4.5 5.7 4.5 3.9 0.1 6.3 10.1 17.9 19.7 16.3 13.5 14.7 14.9 15.3 17.3 13.0 12.4 14.5 11.4 13.5 16.3 15.6 14.4 13.2 12.6 10.7 11.0 9.2 8.1 8.3 9.0 6.1 5.9 5.3 4.3 4.5 5.4 5.2 4.3 3.3 3.5
1.7 13.2 16.5 14.5 10.0 7.3 2.7 4.4 4.3 4.9 4.8 4.6 5.5 5.9 5.9 3.9 0.1 5.6 11.0 15.8 18.6 12.1 10.5 12.4 10.5 13.2 13.2 11.8 14.2 15.1 18.3 11.9 12.7 14.8 15.2 11.4 9.9 11.9 8.8 8.9 6.4 6.1 5.9 5.7 4.2 4.5 4.7 4.3 2.6 3.0 2.9 3.9 3.0 3.7
32.5 19.5 10.5 10.4 6.8 7.1 5.7 2.9 3.0 5.4 9.4 7.0 10.4 11.0 12.4 6.0 12.4 12.2 14.1 18.4 12.3 11.2 10.8 10.6 10.0 10.3 10.7 13.5 14.9 15.7 14.4 13.9 15.2 15.0 17.0 13.1 11.1 9.7 8.6 7.0 6.5 6.6 4.3 4.9 6.1 5.9 5.1 4.0 3.7 3.1 2.0 1.6 4.1 3.3
20.2 6.1 10.1 7.2 7.5 8.3 8.9 7.7 7.5 5.9 5.7 5.8 7.5 3.8 3.3 6.8 9.3 19.6 18.8 19.2 14.2 13.9 14.6 14.5 14.1 10.4 11.3 12.0 11.8 9.4 11.6 11.6 11.4 11.4 17.0 13.6 13.5 14.1 12.4 10.3 8.6 7.8 4.5 4.9 6.8 6.1 4.7 4.0 3.9 3.9 4.1 2.2 2.9 3.9
13.7 5.1 1.7 0.7 1.6 2.6 3.7 3.6 3.7 5.5 7.1 9.2 6.9 5.8 6.1 12.5 14.3 15.1 12.1 11.9 12.1 13.8 11.9 11.9 10.5 11.9 12.7 11.9 10.3 9.3 8.0 6.9 7.7 10.9 12.2 11.7 11.8 13.4 13.7 15.9 15.4 12.9 7.0 6.1 5.3 5.1 6.6 5.6 5.4 5.2 5.3 4.7 4.9 5.4
4.1 1.9 2.8 2.0 2.8 2.3 4.1 3.7 5.6 7.7 6.3 4.7 6.4 7.5 11.2 10.9 15.3 14.8 12.8 12.4 9.9 7.8 6.6 6.0 5.2 5.9 6.5 7.3 7.5 6.7 5.6 6.3 6.7 6.4 5.6 6.0 7.9 11.2 11.3 10.6 8.7 7.1 7.5 7.3 7.2 5.7 5.7 6.2 6.0 6.4 6.3 5.9 5.5 4.5
3.8 2.3 3.0 4.8 3.5 4.2 7.6 7.5 7.9 5.1 4.3 4.5 6.0 7.5 9.7 10.0 14.6 13.0 12.0 8.7 7.4 6.1 5.4 4.2 4.8 2.3 2.1 1.6 1.5 2.8 4.4 5.3 5.2 7.1 5.8 7.3 8.9 8.1 7.5 7.5 6.5 7.0 7.2 8.1 7.3 6.9 7.0 5.7 5.2 5.0 6.6 8.2 6.5 5.8
2.2 2.1 2.9 3.5 3.6 5.1 9.3 4.3 5.6 3.9 1.7 1.7 1.5 2.5 3.8 11.8 17.9 12.6 8.6 6.3 5.5 6.2 6.0 4.9 3.8 2.7 2.8 2.4 2.0 2.1 3.8 4.3 4.9 6.9 7.6 5.9 7.4 6.7 5.9 6.1 5.9 5.3 6.5 7.1 9.9 9.5 9.6 8.3 7.6 8.2 8.1 6.9 7.2 9.1
0.8 1.3 1.7 3.2 6.4 8.3 5.2 3.3 2.9 2.3 1.6 1.2 0.9 2.1 5.1 8.6 11.0 7.3 5.4 6.5 4.3 3.0 2.7 2.9 3.1 3.4 2.8 3.3 4.9 5.2 5.0 3.3 3.3 3.9 4.6 5.3 4.7 4.9 4.8 4.0 5.3 5.7 6.3 7.6 7.6 9.9 12.5 12.2 11.5 11.5 10.1 8.6 7.7 8.5
1.1 2.9 2.8 2.4 4.9 4.3 4.9 7.5 5.0 3.3 3.1 3.0 4.9 3.4 6.1 6.1 7.0 7.8 5.3 4.8 4.1 3.1 2.9 4.0 4.1 4.7 5.2 6.6 6.7 6.8 6.7 4.9 4.1 4.3 4.0 4.3 5.0 5.3 4.8 3.8 4.1 4.8 4.9 5.8 6.2 8.0 8.9 11.2 13.8 12.3 10.6 10.4 10.5 9.4
2.4 2.7 2.3 3.8 4.1 4.9 3.4 5.6 2.9 4.2 4.4 5.6 7.9 5.6 5.6 5.6 10.2 11.6 4.7 4.9 8.8 7.3 6.9 7.9 7.7 7.4 7.9 7.8 7.9 6.4 4.3 5.2 4.6 4.6 4.7 5.1 5.1 5.0 4.1 4.4 4.5 4.5 4.3 4.3 4.9 6.0 6.2 8.2 9.5 12.6 13.6 13.7 14.4 13.5